Regional Weather Roundup
Issued by NWS

Home | Current Version | Previous Version | Graphics & Text | Print | Product List | Glossary On
Versions: 1 2 3 4 5 6 7 8 9 10 11 12 13 14 15 16 17 18 19 20 21 22 23 24 25 26 27 28 29 30 31 32 33 34 35 36 37 38 39 40 41 42 43 44 45 46 47 48 49 50
808
ASUS45 KBOI 072010
RWRID

IDAHO REGIONAL WEATHER ROUNDUP
NATIONAL WEATHER SERVICE BOISE ID
100 PM MST WED DEC 07 2016

NOTE: "FAIR" INDICATES FEW OR NO CLOUDS BELOW 12000 FEET
WITH NO SIGNIFICANT WEATHER AND/OR OBSTRUCTIONS TO VISIBILITY

IDZ012-014-072100-
SOUTHWEST IDAHO


CITY           SKY/WX    TMP DP  RH WIND       PRES   REMARKS
BOISE          SUNNY     22  16  78 SE10      30.37F WCI  11
CALDWELL       SUNNY     30  21  69 E5        30.40F WCI  25
MOUNTAIN HOME  MOSUNNY   20  20  99 E5        30.37F WCI  13
$$

IDZ016-017-072100-
SOUTHCENTRAL IDAHO


CITY           SKY/WX    TMP DP  RH WIND       PRES   REMARKS
BURLEY         PTSUNNY   21  15  78 NW7       30.29S WCI  12
JEROME         CLOUDY    20  16  84 SW6       30.32S WCI  12
TWIN FALLS     SUNNY     22  13  68 W6        30.30S WCI  14
$$

IDZ019>023-072100-
SOUTHEAST IDAHO


CITY           SKY/WX    TMP DP  RH WIND       PRES   REMARKS
IDAHO FALLS    MOSUNNY   19   3  49 VRB5      30.28F WCI  12
POCATELLO      FLURRIES  18  13  80 W6        30.30F WCI  10
REXBURG        SUNNY     13  -1  54 NE5       30.28S WCI   5
$$

IDZ006-010-011-018-031-032-072100-
CENTRAL IDAHO MOUNTAINS


CITY           SKY/WX    TMP DP  RH WIND       PRES   REMARKS
MCCALL         SUNNY     11   7  84 S6        30.19F WCI   1
HAILEY         MOSUNNY   16   9  73 SE8       30.23F WCI   5
STANLEY          N/A      7  -2  66 CALM      30.16F
SALMON         CLOUDY    18  10  73 CALM      30.29F
CHALLIS        SUNNY     17   6  62 VRB3      30.22F
$$

IDZ002-004-006-007-026-072100-
NORTHERN IDAHO


CITY           SKY/WX    TMP DP  RH WIND       PRES   REMARKS
LEWISTON       PTSUNNY   26  18  71 SE5       30.45F WCI  20
LOWELL           N/A     31  23  72 S5        30.45F WCI  26
COEUR D`ALENE  CLOUDY    25  13  60 NE14      30.41F WCI  13
MULLAN PASS    LGT SNOW   6   4  91 VRB3      30.15S FOG
$$




USA.gov is the U.S. government's official web portal to all federal, state and local government web resources and services.